Theta_e
313 313 312 313 313 312 312 311 310 309 309 307 305 309 304 301 298 309 311 310 308 301 296 298 296 294 295 298 298 298 297 296 297 295 297 294 297 295 295 294 292 294 293 293 292 293 292 294 294 297 298 297 304 305 306 307 307 310 309 310 312 319 306 304 305 309 312 312 313 314 314 313 310 309 310 309 306 307 305 304 307 303 303 301 301 301 306
313 313 313 313 313 311 312 310 310 310 309 309 308 304 302 302 302 303 309 310 307 298 291 291 292 294 296 297 295 298 296 295 295 295 296 295 294 294 294 295 297 294 296 294 290 295 289 296 296 295 298 296 305 305 307 307 305 305 303 304 311 303 308 305 302 302 305 306 308 309 312 312 308 307 308 310 310 310 309 309 310 304 304 303 300 296 304
313 313 313 313 312 312 311 310 310 311 311 311 309 302 303 303 304 303 305 308 304 296 297 293 293 293 293 294 292 293 295 297 296 295 295 297 296 295 293 294 296 295 296 293 294 294 293 291 296 297 297 296 304 305 305 307 305 307 309 312 311 306 306 306 299 297 295 295 295 298 302 305 308 310 309 309 308 309 307 302 306 299 309 309 302 302 310
313 313 313 312 312 312 311 311 311 311 311 310 308 305 303 300 291 298 300 303 301 300 301 298 295 293 293 292 293 294 292 296 297 296 296 297 297 296 295 296 298 296 294 292 291 291 295 292 292 294 294 297 300 302 303 304 306 310 316 313 310 305 307 307 306 303 302 304 308 309 310 308 304 306 308 307 309 310 310 308 305 301 308 305 309 309 309
313 313 313 312 312 311 311 311 311 311 311 310 308 306 303 301 294 294 291 298 298 296 298 296 296 293 296 290 294 292 294 294 294 298 292 297 296 295 295 293 292 293 293 291 290 292 292 295 293 292 293 296 297 302 304 304 308 313 311 313 308 306 303 306 309 308 309 312 310 311 311 307 307 306 306 308 307 308 308 305 303 317 307 301 313 323 308
313 313 313 313 312 312 311 311 311 311 311 309 309 300 302 293 297 298 299 292 290 291 293 296 295 297 296 293 296 293 292 293 291 296 297 297 298 293 294 295 294 293 292 292 289 291 290 291 289 293 294 294 297 297 301 300 307 307 305 309 306 303 301 307 307 307 309 311 311 312 310 309 309 308 307 307 308 307 306 307 309 312 306 305 316 321 314
313 313 313 313 312 312 312 311 311 311 310 309 308 298 300 299 299 298 301 293 295 295 295 296 295 294 295 294 295 292 291 290 293 293 294 295 294 296 289 292 294 294 294 293 290 291 286 286 291 290 291 291 293 292 297 302 302 301 301 307 309 305 302 306 308 306 308 309 310 311 310 310 310 308 308 308 308 307 307 308 310 310 314 314 314 320 313
313 313 313 313 313 312 312 311 311 312 309 309 304 301 295 295 294 293 298 297 295 296 296 295 294 292 295 291 292 292 292 291 293 295 294 290 292 296 292 292 294 294 294 294 290 291 291 291 288 292 291 292 293 292 294 294 298 300 299 305 307 304 303 307 307 305 305 307 309 310 310 308 307 309 309 309 309 308 308 308 309 311 310 310 311 315 315
313 313 313 313 313 312 312 312 312 311 310 306 302 300 303 301 302 302 294 290 294 296 296 294 293 291 293 290 292 293 293 292 295 294 296 293 290 292 292 294 294 294 294 294 293 295 294 294 294 295 294 289 294 291 293 297 293 297 297 303 303 305 303 307 306 301 302 306 307 308 309 309 308 307 309 309 308 306 308 306 309 309 309 311 310 312 310
312 313 313 313 313 312 312 311 311 311 310 306 304 299 304 303 304 303 297 289 296 293 295 295 293 289 292 293 293 293 294 295 296 291 295 296 297 296 295 294 293 292 292 292 295 297 297 297 298 297 297 298 296 297 296 296 295 295 297 301 299 301 301 300 301 298 300 305 307 307 307 306 303 304 307 310 310 310 311 311 311 311 312 308 307 310 316
313 313 313 313 312 312 312 312 312 312 311 304 302 301 303 300 298 298 298 287 292 294 293 292 291 293 294 296 295 296 296 295 295 290 291 296 296 297 297 295 292 291 292 296 300 300 300 300 300 300 298 297 296 297 297 297 298 298 297 298 300 300 299 299 302 297 299 304 305 307 303 296 298 310 312 312 310 310 309 308 310 312 312 311 314 316 320
312 312 312 313 312 312 312 313 312 310 309 310 308 303 306 307 304 300 292 286 289 295 293 290 292 294 294 296 295 294 293 293 294 297 293 295 296 298 296 295 294 290 298 301 302 301 301 301 300 300 298 297 296 297 297 295 297 301 301 298 298 298 299 298 302 298 298 303 304 299 295 297 310 313 314 315 313 312 311 312 312 312 312 313 313 315 318
312 312 312 313 313 313 313 313 313 311 310 312 309 303 307 309 303 298 294 288 287 291 290 292 297 296 296 295 296 296 297 297 297 297 297 296 295 297 297 295 294 295 302 300 300 298 295 293 295 296 296 296 296 297 296 295 296 299 300 301 297 296 296 297 297 300 302 300 299 292 294 307 311 312 314 315 313 313 312 309 312 314 313 315 315 316 317
312 313 313 313 313 313 313 313 312 312 311 310 308 307 308 309 301 298 295 289 289 294 295 294 296 295 294 294 295 296 296 296 298 300 295 297 295 296 298 298 299 301 301 302 298 298 293 293 290 292 292 294 294 292 295 296 297 296 297 299 301 299 298 298 294 302 296 298 297 298 307 304 307 307 311 311 309 310 308 305 310 316 315 315 315 317 317
312 312 312 313 313 313 313 312 313 313 312 310 310 309 308 308 306 301 301 295 287 291 294 288 293 294 295 295 295 294 295 294 295 294 298 300 296 297 298 300 303 302 302 299 295 296 293 291 287 287 289 288 285 287 295 292 297 298 298 299 300 301 296 299 295 297 300 297 296 297 297 295 302 309 313 315 315 315 315 311 308 314 315 317 316 315 316
311 312 312 313 313 313 313 313 313 312 312 310 310 308 309 311 310 306 302 296 291 285 292 296 297 296 294 294 295 293 292 293 295 293 294 296 296 297 299 302 303 304 301 298 297 293 292 288 286 287 285 288 291 291 290 293 292 296 298 298 298 299 300 299 295 294 297 296 293 295 293 298 307 308 312 314 315 315 315 309 304 315 315 316 315 314 317
311 312 312 312 313 312 313 313 313 312 312 310 309 309 307 313 309 304 300 297 294 288 297 299 299 297 295 293 295 295 297 292 293 290 290 291 295 297 299 302 302 301 298 295 295 292 289 288 287 288 291 292 288 289 294 292 291 291 295 296 295 295 295 297 294 294 294 295 294 293 300 299 306 310 312 314 316 315 313 299 301 314 316 321 317 315 318
312 312 312 313 313 313 313 313 313 313 312 312 310 308 308 314 312 308 301 298 292 292 297 299 297 294 294 297 294 298 298 296 297 297 294 296 296 296 297 299 296 300 300 292 295 289 288 288 285 285 285 293 295 295 286 293 290 292 291 291 290 291 293 294 292 294 295 294 295 299 301 309 310 310 313 314 316 313 302 296 311 320 322 322 320 318 323
312 312 312 313 313 313 313 313 313 313 313 310 312 310 309 312 311 309 303 299 295 290 298 302 303 300 301 303 299 300 300 297 296 293 293 292 295 299 299 299 299 292 298 292 292 290 288 288 291 288 287 291 295 289 295 291 290 294 296 290 290 290 291 293 294 293 293 295 292 294 300 306 309 314 312 313 310 300 300 314 320 323 323 324 324 324 326
312 312 312 313 313 313 313 313 313 313 313 311 310 306 309 312 312 309 302 297 298 294 298 300 301 299 302 299 297 296 297 299 297 295 293 290 299 299 295 290 299 297 294 297 290 293 288 286 288 292 288 289 290 296 293 294 297 294 293 297 292 291 288 288 289 293 295 296 294 292 288 303 310 311 311 314 306 307 313 317 319 322 323 324 325 326 327
312 312 312 312 313 313 313 313 313 313 313 313 310 307 306 314 312 312 310 305 299 294 296 303 303 302 302 301 302 302 300 297 298 294 297 296 301 297 286 287 292 294 290 291 286 287 289 287 291 290 293 290 293 294 289 292 294 300 298 295 295 304 290 289 291 295 290 291 290 291 302 306 311 311 303 309 311 315 317 315 316 322 323 322 324 326 327
312 312 312 312 312 313 313 313 313 313 313 313 310 309 304 312 313 312 311 309 302 297 299 305 306 305 306 307 306 306 304 304 304 304 299 297 300 298 298 298 297 296 297 298 292 292 293 293 295 291 289 290 295 291 294 289 288 294 300 298 290 302 297 299 293 297 294 293 297 305 306 307 310 311 309 311 314 314 315 314 317 320 320 322 323 323 325
312 312 312 312 312 313 313 313 313 313 312 313 312 309 305 310 311 313 311 302 305 305 306 305 306 306 308 309 310 310 310 310 308 306 305 300 297 300 299 297 297 300 301 301 296 295 295 295 292 294 292 292 291 290 294 293 291 294 291 298 297 301 303 305 301 299 303 304 304 306 308 309 310 309 310 311 312 313 313 314 315 318 319 320 320 322 323
312 312 312 312 313 313 313 313 312 312 312 312 311 309 308 311 313 310 307 305 301 297 301 304 301 299 301 302 306 309 309 308 308 308 310 307 296 296 301 302 304 301 301 303 305 299 298 297 295 297 290 294 297 291 289 288 291 295 295 295 298 300 302 301 297 301 296 291 304 304 306 309 309 308 311 313 312 312 314 316 316 316 317 317 320 321 321
312 312 312 312 312 313 313 312 312 312 312 312 312 313 313 311 314 311 304 296 297 295 291 298 300 304 307 308 309 307 307 309 310 309 308 307 303 297 296 301 304 300 299 303 305 302 301 294 295 295 290 297 298 289 297 292 292 298 292 294 295 296 304 298 299 299 296 297 303 305 306 307 308 308 308 309 311 313 315 316 316 316 316 317 318 320 319
312 312 312 312 312 312 312 312 312 312 312 312 312 310 309 310 316 313 309 307 306 300 293 293 299 308 308 306 304 307 309 308 307 306 306 306 306 306 303 304 304 306 305 304 303 299 298 297 297 296 293 293 301 293 294 297 295 299 296 294 300 301 302 294 300 297 300 303 304 305 306 305 307 308 310 310 310 311 314 315 315 315 315 317 318 318 318
312 312 312 312 312 312 312 312 312 311 311 311 312 314 313 315 316 312 307 305 299 294 296 293 298 303 306 304 308 309 309 308 307 306 305 305 305 305 304 304 302 302 302 302 303 300 299 297 296 293 295 296 301 297 298 296 296 295 294 298 302 299 295 300 298 295 295 296 300 304 298 298 304 307 309 310 312 312 312 313 313 314 314 315 315 316 318
312 312 312 312 312 312 312 311 311 311 310 311 313 315 316 313 315 314 314 311 302 295 296 296 297 301 307 303 308 308 308 309 308 306 305 305 305 304 303 302 302 300 300 298 295 296 296 294 293 298 299 299 296 294 299 300 299 296 296 298 302 297 299 298 295 295 294 301 304 307 305 304 305 306 308 310 312 312 311 311 311 313 315 315 315 315 316
311 311 311 311 311 311 311 311 311 311 311 309 315 314 313 316 315 314 314 313 310 302 300 300 303 301 296 301 308 306 308 308 307 306 305 305 304 304 303 302 301 301 300 299 298 296 294 295 298 296 295 299 296 293 295 291 292 291 296 302 301 303 304 302 301 301 302 304 304 306 304 303 305 308 309 309 312 311 310 311 312 313 314 315 315 315 315
311 311 311 311 311 311 311 311 311 312 312 315 314 310 306 307 314 315 314 313 310 307 298 296 293 299 307 306 304 306 305 307 306 305 304 303 303 303 303 302 302 303 301 298 297 293 296 296 297 299 300 304 296 295 292 293 292 294 300 302 303 304 304 305 305 302 300 305 306 307 306 307 308 309 309 310 311 311 310 311 311 312 313 314 314 314 316
311 311 311 311 310 311 311 311 312 311 309 314 311 304 302 298 306 315 313 313 313 306 301 300 295 301 300 306 305 304 305 305 305 304 304 304 304 304 304 304 303 302 299 299 298 297 298 294 295 296 300 300 298 294 292 292 290 293 299 302 303 303 303 304 306 307 306 306 306 307 307 307 308 307 307 309 310 311 310 311 312 315 314 315 315 316 316
311 311 310 310 310 310 311 311 311 311 315 313 307 306 306 307 311 313 313 313 311 305 299 294 294 296 296 301 304 308 307 307 306 305 306 306 303 305 304 303 301 304 302 299 299 299 296 297 295 296 296 300 299 295 294 292 290 292 299 301 302 303 303 304 304 305 306 307 306 305 303 305 307 305 304 309 310 311 311 312 313 314 316 315 316 317 318
311 310 309 310 310 311 312 312 312 312 314 311 309 309 308 307 308 311 313 313 309 304 303 297 292 296 295 297 303 305 306 305 305 308 303 309 304 308 303 305 304 302 305 300 295 292 299 299 298 295 299 303 295 293 291 289 292 298 300 301 301 302 302 304 305 305 306 306 305 301 301 303 306 308 309 309 309 309 310 310 311 312 312 313 313 314 315
310 310 309 310 311 311 312 311 312 309 309 313 311 311 313 310 312 309 313 312 306 305 303 297 292 292 294 303 297 302 306 300 299 303 300 308 309 304 301 304 304 297 302 297 298 298 299 297 294 294 298 295 297 291 286 291 296 298 299 300 301 301 302 303 303 303 305 306 307 307 306 307 308 309 309 309 309 311 311 311 310 309 310 311 312 314 315
310 309 310 310 310 310 311 311 313 313 312 312 312 315 313 307 310 311 311 309 299 297 296 296 297 291 292 296 295 299 306 302 299 302 300 304 311 302 303 297 300 293 296 305 298 295 293 294 299 292 288 295 291 286 288 292 295 296 297 298 300 300 301 300 301 304 305 306 307 307 308 308 307 307 307 308 308 309 309 309 310 310 309 310 312 314 316
310 310 311 312 310 312 314 312 311 314 313 311 312 312 311 311 311 314 313 311 306 298 295 294 295 291 292 289 291 299 306 302 304 304 305 306 304 307 305 301 292 297 304 297 290 295 291 300 296 287 294 289 286 289 290 294 293 294 296 296 298 300 301 302 302 305 306 308 308 308 308 308 307 307 307 308 309 310 310 309 309 310 310 310 311 313 315
310 311 310 309 313 316 314 313 316 315 313 315 314 313 312 313 313 312 310 308 309 307 299 296 292 295 295 293 297 303 304 296 304 303 304 301 299 304 303 298 291 298 298 294 294 292 297 304 293 288 287 286 288 294 295 297 299 299 301 303 305 306 305 305 306 305 304 306 307 307 307 307 308 308 308 309 309 310 309 309 310 310 310 310 311 312 315
310 311 314 314 313 312 311 314 315 315 314 312 312 309 308 308 303 303 303 302 305 304 301 299 294 297 300 297 296 304 303 300 305 301 302 305 301 299 304 298 297 297 288 291 295 303 299 296 290 287 288 294 296 298 301 301 301 302 303 305 306 309 311 312 310 307 305 303 303 305 306 306 306 307 307 308 309 309 310 311 312 312 312 312 313 314 317
309 315 314 317 317 310 311 316 315 314 314 314 314 307 305 306 305 303 305 305 303 301 302 299 299 302 299 299 302 308 303 300 300 301 297 304 300 296 302 293 300 300 291 293 297 304 291 291 291 289 287 294 297 300 304 303 302 302 304 305 307 308 310 310 312 310 308 306 306 307 307 306 306 306 309 309 310 311 312 312 312 313 314 313 314 318 326
319 318 318 317 313 315 318 316 314 314 316 310 311 308 305 309 304 298 307 301 301 305 304 296 306 306 305 302 301 302 309 305 299 298 300 302 307 298 300 300 300 296 288 288 293 305 291 286 288 288 288 295 297 302 304 305 302 303 303 305 307 307 308 308 309 311 313 313 313 312 311 311 311 310 310 310 311 311 311 312 313 314 315 315 319 325 324
318 319 317 313 316 321 321 317 317 317 315 310 310 309 306 298 308 309 306 301 301 303 311 308 307 305 307 306 305 302 310 310 309 308 304 300 305 304 297 292 302 292 288 288 297 301 293 289 288 287 290 297 299 302 304 304 305 306 305 305 306 306 307 307 307 309 309 309 311 313 314 314 314 314 313 313 313 312 313 313 314 315 315 319 324 326 326
320 317 318 319 323 326 323 318 317 315 311 311 303 295 301 304 308 307 305 297 298 305 307 309 303 304 305 309 308 309 309 312 310 308 304 300 306 302 297 301 302 290 286 294 299 296 292 286 286 288 295 299 303 304 304 304 306 305 304 305 306 306 305 305 305 307 308 308 308 310 312 314 314 314 315 315 314 314 314 314 314 315 320 327 327 326 324
307 309 316 320 321 318 319 305 309 311 295 295 295 293 300 294 299 299 302 308 310 307 305 313 311 315 313 315 310 313 311 313 308 307 304 300 307 306 298 293 293 287 292 302 295 289 286 285 286 290 298 301 303 304 305 306 307 307 307 306 306 306 306 305 304 304 306 307 307 307 309 309 310 312 314 316 317 317 318 321 323 323 322 324 325 323 323
323 323 323 318 308 310 311 292 307 304 296 297 294 291 296 295 300 303 300 301 305 306 310 306 306 308 304 310 309 307 310 310 308 306 306 307 302 297 296 290 291 299 303 293 291 286 287 289 294 297 300 302 302 304 305 307 308 308 306 307 308 307 307 306 305 304 304 306 306 307 307 307 307 309 310 310 312 313 315 317 320 321 321 321 321 322 322
317 310 306 304 299 304 300 290 304 296 291 296 298 298 300 297 300 302 301 305 307 303 308 310 308 307 304 310 314 310 308 306 310 304 298 301 297 298 295 292 298 298 293 287 288 289 289 289 297 299 300 300 301 303 305 306 308 308 306 307 308 308 307 306 305 304 303 304 305 306 305 306 306 306 307 307 308 308 308 310 314 316 318 318 318 318 318
311 303 300 294 290 296 297 292 294 292 300 302 300 302 302 303 303 304 308 312 309 309 306 308 309 309 306 308 305 302 306 306 301 302 304 302 295 292 299 301 300 293 291 290 286 285 287 292 296 298 300 301 302 304 305 305 306 307 306 304 305 306 306 306 306 305 305 304 304 304 305 305 305 305 305 306 306 307 308 309 310 309 311 313 315 315 316
308 311 304 299 294 297 305 294 297 301 302 303 304 305 303 305 306 307 308 309 309 310 310 310 309 308 304 304 306 306 307 306 301 301 303 295 294 297 302 296 288 290 285 284 285 287 291 296 298 300 301 302 303 304 304 304 304 304 305 306 306 306 306 307 307 306 306 306 305 304 304 305 305 305 305 305 305 306 308 308 308 309 308 307 308 309 310
299 307 305 294 292 297 296 301 306 305 305 305 304 306 306 308 305 304 307 309 309 309 308 308 306 306 307 310 309 301 303 304 301 299 302 298 300 295 290 292 289 291 291 287 288 295 296 298 300 301 302 303 303 303 303 304 304 303 304 305 306 307 307 306 306 306 307 306 306 305 304 305 304 305 304 305 305 306 306 306 307 307 308 308 309 308 308
310 300 297 296 303 303 302 304 304 301 302 304 305 305 304 304 303 305 307 309 308 307 309 308 304 304 301 304 303 301 298 303 296 293 301 297 292 288 289 285 286 286 293 297 297 298 299 302 305 303 303 303 303 303 304 304 304 303 302 303 304 305 307 307 307 308 308 308 306 306 305 306 305 305 305 305 305 305 307 308 307 307 307 308 308 309 309
302 300 304 301 303 303 305 305 303 300 303 303 304 303 304 304 303 306 309 307 308 308 307 308 307 302 300 302 294 298 296 300 299 297 296 293 293 295 292 286 288 288 291 296 298 299 302 303 303 304 304 304 304 303 303 304 305 305 304 304 304 305 305 306 307 308 308 307 307 307 307 306 305 305 304 304 305 306 307 307 306 306 306 307 307 307 308
309 302 303 308 303 301 303 298 298 299 300 301 302 302 304 303 303 304 308 307 307 306 304 300 301 299 295 294 292 290 292 302 297 295 294 293 297 294 289 288 293 297 299 302 301 302 305 305 306 304 304 304 305 305 305 305 305 305 305 305 305 305 305 305 305 306 307 307 308 308 308 307 307 307 307 307 306 305 305 306 307 307 306 307 307 306 306
300 298 302 305 307 306 305 305 304 303 303 304 304 304 306 303 306 306 310 308 305 301 299 302 300 296 292 291 295 299 302 297 293 296 294 295 298 294 293 294 296 299 300 301 301 303 304 305 306 305 304 304 305 305 305 305 305 305 305 305 305 305 305 304 304 304 305 305 306 307 308 309 309 308 308 308 307 306 304 304 306 306 307 307 307 307 306
Wind_Speed
18 18 18 18 18 18 19 19 20 20 21 16 15 13 12 9 11 15 9 13 11 11 8 4 4 5 7 9 10 8 8 8 6 9 7 11 7 10 8 11 14 11 10 13 13 15 14 16 15 15 13 20 11 15 19 19 17 11 4 10 10 8 10 12 14 15 16 21 18 20 20 21 21 20 19 16 16 17 13 9 7 9 12 11 8 8 3
18 19 18 17 17 17 18 18 19 20 19 15 15 12 10 12 12 14 9 12 10 9 8 9 8 8 9 10 11 9 8 9 9 9 11 8 9 9 11 10 10 14 13 10 11 12 10 6 15 16 15 13 23 25 17 16 11 12 8 6 10 8 12 12 12 8 9 17 16 17 20 18 15 17 19 20 17 18 16 11 9 10 12 12 9 10 4
19 18 18 16 16 17 17 17 18 18 18 16 12 11 11 11 11 10 9 9 8 7 6 9 9 10 11 11 13 10 8 8 10 12 11 10 8 9 9 13 12 13 12 12 11 10 10 14 13 17 17 17 23 17 26 21 13 9 13 12 11 6 8 11 12 13 15 19 19 19 19 19 15 18 21 25 23 21 15 15 10 7 8 12 10 8 4
18 19 19 17 17 16 16 17 18 17 16 16 12 10 11 10 11 9 10 9 9 4 6 8 10 10 11 12 10 11 10 7 8 12 10 9 10 8 13 12 15 14 13 13 11 11 10 9 10 12 12 14 13 21 30 26 16 16 15 15 9 6 9 11 11 12 12 9 7 14 14 14 19 20 24 24 25 21 16 10 11 10 7 11 8 8 10
19 19 19 17 17 16 15 15 17 17 16 15 11 10 8 9 9 10 11 11 7 8 9 8 10 10 11 9 9 12 10 8 8 6 7 8 9 10 8 9 11 10 14 12 13 11 11 12 10 13 14 14 18 28 23 27 21 29 17 12 7 7 9 13 14 20 12 7 7 7 10 22 21 22 22 24 25 24 20 15 13 6 8 6 8 7 13
20 19 19 18 17 16 16 14 15 17 15 14 9 9 8 7 8 10 10 10 10 12 9 12 13 14 12 10 9 11 13 11 10 6 4 10 5 7 6 8 8 13 13 15 12 11 12 8 10 14 10 15 18 19 21 21 23 27 16 9 6 7 9 12 17 16 17 17 6 6 9 10 13 24 22 24 25 25 24 18 15 13 10 7 9 7 7
20 20 19 19 16 16 16 14 13 15 15 11 8 7 7 8 8 9 11 9 11 13 17 17 14 15 13 9 10 9 8 10 9 9 11 8 6 4 9 10 13 14 13 11 11 10 8 9 8 6 12 15 15 13 20 17 25 22 21 8 7 5 7 11 14 19 16 13 17 11 6 8 14 17 23 21 24 26 25 20 18 15 9 7 10 5 3
21 20 20 19 17 16 15 14 13 12 13 11 7 5 8 7 7 6 10 10 13 15 13 12 12 11 10 9 6 10 10 12 10 8 10 11 10 5 9 12 14 16 15 12 11 10 10 10 9 10 11 13 8 12 10 13 23 20 18 5 10 4 5 8 9 12 16 18 15 11 10 11 13 15 20 21 21 23 24 22 19 17 13 15 12 13 7
23 21 20 20 18 16 15 14 12 11 7 9 5 5 4 7 7 6 8 11 8 10 12 11 11 10 8 8 6 5 11 10 10 11 6 4 11 11 11 12 15 14 16 15 12 9 8 9 10 10 8 8 9 7 9 14 17 21 18 12 12 8 7 7 8 10 11 12 13 19 12 12 15 17 19 25 24 22 22 20 18 15 13 14 13 12 11
22 21 21 22 20 16 15 14 12 11 3 6 3 6 4 6 7 7 6 6 7 11 12 13 11 10 7 5 11 11 11 12 11 10 4 5 9 10 8 11 11 13 15 17 15 12 9 9 10 8 9 10 11 11 16 17 16 15 14 14 11 9 8 7 5 8 11 11 14 16 10 8 10 12 11 14 15 15 16 19 18 18 15 14 13 8 7
23 23 23 23 21 20 18 15 13 12 6 7 5 6 5 5 6 6 5 7 7 7 10 11 12 9 13 13 14 14 13 11 11 9 6 8 9 10 8 8 6 8 13 12 12 14 14 12 12 9 10 13 14 12 15 21 17 15 13 12 9 12 11 9 8 8 10 13 13 12 11 11 10 6 15 15 12 14 21 19 20 19 15 11 8 9 12
25 23 23 22 21 20 18 16 13 11 8 9 7 7 6 5 3 3 4 5 10 8 9 10 12 12 15 16 14 12 13 15 15 10 12 9 12 11 12 12 10 10 6 13 12 12 14 14 14 13 14 16 18 17 18 20 19 14 11 11 10 12 10 8 8 7 8 10 13 12 17 12 4 9 18 15 6 11 10 10 22 21 20 18 18 15 13
25 24 23 22 21 20 18 16 14 12 10 8 4 8 4 5 5 3 5 5 10 9 10 13 15 16 17 17 13 12 11 11 13 13 13 11 11 9 5 11 11 10 11 11 13 13 13 12 10 12 14 13 14 17 18 19 19 18 12 10 9 9 9 10 9 7 6 9 9 11 12 10 9 9 12 6 10 12 8 9 12 23 21 10 5 12 11
24 24 23 22 21 21 19 17 14 13 12 8 6 7 8 5 6 4 4 4 9 9 11 13 16 13 15 14 14 15 16 13 12 13 10 8 8 11 10 9 8 7 9 9 10 10 10 8 9 6 7 8 10 11 14 17 18 16 15 11 8 9 9 7 9 8 6 4 11 14 1 12 17 16 15 9 9 9 8 6 6 6 10 12 8 7 6
24 25 24 23 21 20 19 18 15 15 14 11 7 7 7 7 8 6 4 5 8 10 9 9 9 13 15 15 16 13 11 11 9 10 11 11 6 3 12 15 11 8 8 9 7 6 6 8 9 7 5 6 8 9 9 11 11 17 15 13 9 7 8 7 9 5 6 7 7 11 10 8 10 7 8 9 6 7 7 8 5 4 5 2 3 6 7
25 24 23 23 22 21 20 18 16 13 14 12 8 9 8 8 8 9 7 7 5 8 7 12 12 9 11 12 15 14 13 11 3 6 8 2 7 8 9 14 8 11 9 9 7 7 6 6 9 8 6 6 7 8 9 9 9 12 15 15 12 10 10 8 8 9 8 9 9 8 12 8 6 15 13 8 3 9 6 4 7 6 8 10 8 6 5
26 25 24 22 22 22 20 19 17 15 13 11 8 9 7 7 8 6 6 6 7 13 8 13 14 13 12 12 10 5 4 7 8 8 9 8 9 12 7 9 8 6 9 8 6 7 7 7 7 9 8 9 7 6 10 9 9 9 16 16 15 12 8 7 8 10 9 9 8 7 5 3 6 10 16 11 8 7 2 5 7 5 3 8 9 11 10
26 25 24 23 22 21 21 19 19 15 13 13 8 7 5 6 9 8 6 7 8 11 10 12 12 10 9 7 9 11 11 10 9 6 7 7 8 6 9 9 8 8 13 7 2 3 7 6 4 5 7 7 7 7 6 6 7 9 13 12 11 8 9 7 10 9 10 10 8 5 2 4 9 13 5 7 10 10 11 9 5 14 10 9 4 3 10
25 24 24 23 22 21 20 19 18 17 15 13 8 7 7 7 8 9 6 7 8 8 3 4 6 10 10 10 11 10 9 13 12 9 7 7 5 13 15 5 7 6 4 5 6 6 6 6 5 3 8 6 5 3 6 6 5 10 8 13 10 11 7 8 9 11 9 6 6 6 1 8 5 2 13 11 4 11 6 6 9 7 13 11 12 9 9
25 24 23 23 22 20 20 18 18 17 16 13 8 8 5 5 9 12 10 9 8 13 11 13 11 15 11 12 10 9 10 9 8 9 8 9 5 11 8 2 2 2 3 4 5 4 4 4 7 5 3 7 2 6 6 8 5 7 7 7 8 10 10 9 10 7 10 8 9 6 5 7 20 5 13 16 8 1 4 6 11 14 12 17 12 13 12
25 24 23 22 21 20 19 19 18 16 15 14 9 6 5 5 9 11 11 8 6 11 13 13 13 14 12 13 13 13 13 12 9 9 9 9 10 8 5 5 6 5 1 1 5 5 2 4 6 3 3 5 5 6 4 6 6 3 6 5 5 5 8 8 9 7 9 10 10 4 5 5 14 12 7 5 8 5 8 7 7 11 11 11 9 13 11
25 24 23 21 20 20 19 18 17 15 14 13 10 6 8 4 7 9 11 10 8 12 8 10 12 13 13 13 13 13 14 16 15 11 10 10 8 8 7 9 8 5 3 3 4 2 1 4 5 5 6 7 9 6 6 5 4 5 8 5 5 4 5 5 4 4 7 5 3 6 7 7 5 12 9 7 5 9 8 9 4 9 8 10 8 9 10
24 24 22 21 20 20 19 18 16 15 14 13 8 4 8 4 4 7 8 9 7 8 9 10 11 13 14 16 16 15 15 13 14 12 10 9 10 7 7 6 4 3 3 2 5 5 7 8 6 6 6 4 4 8 6 5 5 4 5 5 8 9 8 5 6 7 7 9 9 9 7 6 7 13 9 8 5 6 10 9 7 7 8 8 9 9 10
24 23 22 21 21 20 19 18 17 15 13 13 8 7 7 5 3 5 6 5 6 7 10 12 10 7 6 7 6 7 9 11 11 10 8 7 8 7 6 5 9 5 5 7 6 7 6 6 5 6 8 6 7 7 5 4 2 6 5 6 5 9 9 8 7 6 4 3 1 5 7 6 8 9 7 8 8 8 9 10 8 8 8 9 9 10 9
23 22 22 21 20 19 19 19 17 16 14 12 11 8 8 6 4 6 7 6 5 6 6 5 8 11 12 8 7 9 9 8 6 7 9 8 9 8 9 4 9 9 9 7 4 7 4 6 6 6 8 4 4 6 5 6 3 5 7 3 5 4 7 9 8 8 8 9 9 12 15 14 12 8 7 8 8 8 8 6 8 9 9 9 10 10 10
22 22 21 21 21 20 19 19 17 15 13 10 8 6 6 4 5 8 5 5 3 2 5 7 7 6 5 6 8 7 7 6 7 9 9 9 9 10 11 10 8 6 7 8 7 7 8 8 6 7 6 6 5 6 8 7 9 7 7 8 6 6 5 6 5 7 7 10 13 12 11 14 13 10 5 7 9 8 7 7 9 10 11 11 11 10 11
21 21 22 21 22 21 20 18 16 13 9 7 6 6 7 4 4 8 7 4 4 4 6 8 7 8 7 12 10 8 7 7 8 9 8 9 10 9 9 8 8 7 8 8 7 8 7 7 8 8 8 7 6 9 9 8 8 8 8 8 6 7 9 8 8 9 9 8 7 5 9 8 7 8 5 5 10 10 9 9 8 9 11 12 13 13 12
22 22 22 23 22 21 19 17 14 11 7 7 7 5 4 2 5 7 6 5 6 5 7 8 8 10 12 14 10 6 6 8 9 9 8 8 9 8 9 8 7 7 7 7 8 7 7 9 8 8 8 7 9 8 8 10 10 9 9 9 7 9 9 8 9 9 9 8 10 7 9 11 10 12 13 12 10 12 13 13 11 9 10 11 13 14 14
23 22 23 21 20 19 18 14 12 10 6 7 4 4 3 3 3 4 5 4 3 5 6 8 9 9 6 6 6 3 3 5 5 5 7 7 8 8 8 7 7 7 7 7 7 7 8 8 8 8 7 8 8 9 9 10 9 10 8 7 8 9 10 11 13 14 16 15 13 11 11 12 10 9 10 12 10 10 12 15 16 13 11 11 12 12 14
23 23 21 18 17 17 15 13 9 6 5 4 3 3 4 3 0 1 2 3 4 3 4 5 6 3 8 7 5 4 3 5 4 5 7 6 6 6 6 6 7 6 6 7 6 7 7 8 8 8 10 12 10 9 10 9 11 11 11 11 10 10 11 11 11 13 13 13 14 13 13 14 12 12 10 10 10 10 10 11 15 17 17 15 15 14 13
22 21 18 16 15 15 12 10 8 4 2 4 3 4 3 2 3 2 4 2 2 2 3 3 7 7 9 5 3 4 5 4 4 3 5 5 6 6 5 6 6 5 6 6 5 7 6 6 8 9 9 9 7 7 9 11 13 12 14 12 11 10 11 11 13 13 14 14 14 15 16 16 13 13 14 14 13 12 11 11 13 14 14 14 14 14 14
20 18 16 15 13 12 10 6 6 4 4 4 5 5 3 4 5 5 4 2 4 3 3 4 5 4 3 4 5 9 10 9 7 5 2 5 4 3 5 4 5 4 5 5 3 4 5 7 7 8 8 8 8 7 9 10 13 16 18 17 16 15 15 16 15 15 15 15 15 16 18 17 15 14 13 12 12 12 12 11 11 12 12 12 11 12 13
18 16 15 13 11 10 8 7 4 3 2 6 7 8 7 5 5 4 6 3 2 3 2 4 5 5 4 3 4 7 8 3 5 2 2 1 1 2 3 2 2 2 2 2 2 3 2 3 3 6 4 6 5 5 6 10 14 18 20 21 21 21 21 20 19 18 18 16 15 15 15 15 14 15 17 17 17 16 15 14 14 13 13 14 14 14 14
15 14 13 10 7 6 7 6 3 1 3 4 1 1 3 2 1 5 2 2 1 1 2 3 4 5 6 5 3 3 5 4 1 0 1 2 0 2 1 2 2 1 2 4 1 2 2 3 5 6 4 4 3 3 6 10 14 18 20 22 24 24 23 23 21 20 19 18 17 18 19 18 16 16 15 16 16 15 14 15 14 15 15 14 14 14 14
12 12 9 6 6 7 5 2 4 5 1 3 2 1 4 4 7 1 2 2 1 1 1 2 2 5 6 5 4 5 6 4 4 4 3 1 1 0 2 1 3 2 1 1 2 4 4 4 0 4 4 2 3 4 7 9 17 18 20 23 25 24 24 23 23 21 19 18 18 18 17 18 20 19 18 17 18 17 17 17 17 16 14 14 14 15 14
10 9 6 3 2 3 3 3 4 5 3 2 3 6 6 5 3 2 3 2 2 1 1 2 3 2 3 4 6 4 6 2 1 2 0 1 1 1 2 1 0 2 2 2 2 2 3 1 1 3 1 2 4 4 8 15 20 23 24 21 21 19 19 23 22 20 18 17 19 19 19 20 20 20 19 19 19 18 18 17 18 18 16 15 15 14 14
7 3 2 2 5 3 5 1 4 3 4 6 9 9 7 7 4 1 1 1 2 1 1 2 1 3 2 3 4 4 6 5 3 2 1 2 2 2 1 2 1 1 1 2 2 3 4 4 2 3 2 3 4 11 15 13 18 19 17 16 14 14 16 16 20 23 21 20 21 19 19 19 19 17 16 16 15 15 16 18 18 17 17 17 16 14 14
4 2 4 4 4 4 1 3 2 9 15 18 13 6 3 3 2 2 2 2 2 2 2 1 1 2 2 3 4 4 3 4 4 3 2 1 1 2 1 1 1 1 2 2 2 1 1 2 2 2 4 6 11 11 6 13 18 18 18 17 15 15 12 7 15 15 16 17 17 20 19 19 18 17 17 18 17 17 16 15 15 16 16 15 14 14 13
10 4 5 5 4 4 4 4 8 13 7 5 2 2 3 3 4 3 2 3 3 2 3 1 3 2 2 3 2 2 3 3 7 6 5 2 3 3 1 3 1 2 2 2 2 1 2 2 2 3 4 8 11 13 6 8 17 21 22 22 21 18 16 19 16 7 15 15 15 15 16 16 18 18 17 16 16 15 15 16 17 16 15 15 14 13 6
4 5 3 2 3 5 7 10 15 9 4 2 3 2 2 4 4 2 2 1 1 3 3 0 2 2 3 5 5 2 2 3 5 5 6 3 1 3 1 1 1 2 4 6 4 1 3 4 3 3 8 13 15 18 14 10 10 18 22 23 23 21 21 20 20 18 8 3 8 12 14 17 16 15 16 17 16 16 16 16 16 15 14 14 12 8 5
2 4 2 4 4 2 6 8 7 4 4 2 2 3 2 3 4 4 1 6 5 4 3 5 3 2 2 2 3 4 3 3 1 1 3 2 2 2 1 3 2 2 3 4 5 3 3 2 5 7 14 14 16 16 15 16 15 13 17 21 23 23 24 23 24 22 20 16 14 11 8 6 13 15 12 15 16 15 16 15 14 13 15 11 8 7 7
3 3 4 6 6 3 5 4 5 5 2 2 2 2 2 2 3 4 4 5 6 4 4 3 4 3 3 5 5 5 1 0 2 1 2 2 1 1 2 1 1 3 4 3 4 4 4 5 7 9 13 15 15 17 17 16 15 18 20 18 20 22 24 23 23 22 21 19 17 16 13 14 12 6 6 10 11 12 13 13 13 13 11 8 8 9 10
6 4 4 4 4 4 5 2 1 1 1 2 1 2 4 3 5 4 3 2 1 2 2 1 3 2 4 2 1 3 1 1 3 2 2 2 1 1 3 3 1 4 2 2 3 2 7 8 8 9 12 13 14 15 15 17 17 14 15 16 16 17 20 23 24 23 22 20 19 17 15 18 17 13 15 10 4 4 5 2 6 8 10 10 8 9 10
4 4 4 3 2 3 3 1 4 2 1 2 4 5 8 6 6 7 7 8 5 4 2 2 4 5 4 1 2 3 1 2 3 0 3 1 3 5 4 3 5 2 3 3 3 6 3 2 4 7 9 11 13 15 15 15 15 15 16 18 17 17 18 19 22 24 25 22 20 19 19 21 21 18 20 19 18 13 7 8 5 11 12 10 8 9 8
5 2 3 3 1 2 0 1 4 3 5 7 6 8 8 10 9 9 7 2 2 7 6 1 5 5 5 2 4 2 3 1 2 1 4 4 5 6 6 6 3 4 5 4 3 3 1 6 8 9 11 12 12 14 15 15 15 15 15 15 19 19 20 20 20 19 20 21 22 20 20 21 21 19 18 18 18 20 21 15 14 11 13 14 13 13 10
3 3 3 3 3 2 1 2 2 4 6 6 8 8 9 9 9 9 6 1 2 4 5 6 6 6 8 6 5 5 4 4 1 4 2 3 5 6 5 3 4 6 6 4 4 7 6 8 10 10 11 12 12 12 12 12 14 14 15 17 18 21 20 21 20 18 18 19 20 20 20 21 20 19 20 19 20 21 20 18 18 16 15 16 14 14 14
2 4 1 1 3 2 4 4 6 5 5 5 8 8 8 8 9 8 8 10 7 6 7 6 8 6 3 8 4 3 5 3 4 5 4 5 5 3 2 6 5 4 4 5 5 3 6 8 8 8 11 12 12 13 13 13 14 15 15 15 18 18 19 18 19 20 18 17 19 21 20 20 18 18 20 20 20 20 20 19 23 22 21 18 15 17 18
2 4 2 2 3 3 6 7 6 6 9 10 9 9 9 7 8 10 11 9 8 8 7 7 6 3 3 2 3 6 6 5 4 6 4 3 2 4 3 4 3 3 3 2 4 4 4 5 7 8 11 11 12 13 14 14 16 17 16 16 17 17 16 18 18 18 18 18 17 17 17 19 18 19 20 19 19 20 19 19 22 22 20 18 18 19 18
3 3 4 3 4 5 6 6 6 7 9 9 9 9 11 11 10 11 11 10 10 10 7 4 6 6 6 5 5 5 7 6 4 3 4 5 4 4 3 3 4 3 3 3 5 6 5 2 4 8 10 11 11 12 14 15 15 16 17 17 16 15 14 14 15 16 16 15 15 16 16 16 16 17 17 18 19 19 18 18 19 18 18 17 17 17 17
1 2 4 5 5 7 8 6 8 8 8 7 8 10 9 9 10 10 10 11 9 8 7 4 6 5 6 6 4 3 4 6 6 3 6 8 6 4 5 3 1 1 5 6 5 7 6 7 7 7 10 11 12 13 13 13 15 15 15 16 15 15 15 14 14 15 14 14 14 15 15 14 14 14 16 16 15 14 15 16 16 16 16 16 16 17 17
2 2 5 6 8 7 8 9 9 9 8 9 9 9 10 11 11 11 11 9 9 8 7 8 6 5 4 4 3 3 3 4 5 8 6 6 5 4 2 4 6 4 2 4 7 6 6 5 5 7 9 10 11 11 11 12 13 13 14 14 14 14 14 15 15 14 14 15 15 13 13 12 12 11 11 11 13 14 14 14 14 13 13 13 13 14 14
3 3 6 5 5 6 6 5 6 7 7 8 8 8 8 9 9 9 9 9 9 8 9 7 6 5 4 5 5 5 3 3 5 6 7 6 5 7 6 7 8 8 5 5 6 7 7 7 8 9 9 11 11 10 11 11 12 12 12 13 13 13 14 13 13 13 12 13 12 12 11 11 10 10 10 11 11 11 12 11 12 12 11 10 10 11 11
Wind_Direction
328 329 331 333 334 335 335 338 336 340 345 348 349 325 312 347 316 314 354 27 339 322 303 318 303 326 334 325 295 311 297 325 331 310 339 308 333 308 304 312 315 305 326 323 314 325 307 302 296 299 353 333 3 341 343 332 321 322 334 314 230 251 245 216 245 239 225 184 191 189 208 208 208 207 210 210 205 197 212 210 202 206 201 213 218 238 136
325 326 328 331 332 332 334 335 337 339 351 350 339 327 324 323 310 296 28 4 357 306 336 335 331 327 325 315 315 304 324 313 335 332 331 330 321 332 315 315 310 312 311 302 307 321 307 289 320 324 337 301 329 333 336 334 314 350 3 327 10 253 210 243 219 230 250 185 183 198 193 216 217 205 201 214 213 197 205 215 205 221 197 206 213 209 216
323 323 325 329 329 330 331 333 333 338 341 346 337 329 326 303 286 304 343 351 334 322 324 319 321 316 320 322 315 329 316 3 335 324 311 324 323 321 318 317 315 303 303 298 296 287 293 304 323 1 339 330 323 319 345 325 308 324 341 328 299 274 289 232 220 221 212 192 189 193 190 200 215 212 199 205 215 207 191 207 199 216 184 203 211 214 166
321 321 322 324 326 327 330 330 331 333 338 341 338 325 319 325 322 326 326 350 316 255 299 321 328 319 326 317 321 323 321 345 333 298 311 334 340 329 321 321 324 305 310 306 291 305 305 322 336 1 330 324 323 333 329 330 310 342 328 306 290 291 290 279 242 234 220 215 194 200 199 190 210 209 208 195 210 217 205 199 212 201 188 200 198 232 130
319 318 319 320 321 324 327 328 328 329 333 337 332 312 302 305 301 340 328 331 309 328 322 327 329 316 322 303 324 313 317 331 302 326 312 332 338 320 328 343 330 323 318 309 312 308 330 346 6 340 325 333 321 328 323 322 330 350 307 270 300 278 268 257 250 238 243 86 89 19 232 201 202 216 206 200 197 214 210 197 205 169 190 208 175 145 152
313 314 315 317 317 319 322 324 326 326 328 329 325 327 333 312 326 322 346 316 309 314 316 329 309 306 306 297 295 304 323 311 308 318 325 324 349 327 324 309 305 309 315 317 307 325 332 7 346 336 337 331 337 322 334 313 341 346 323 305 290 321 286 263 246 248 249 245 271 287 328 322 209 210 213 200 196 204 214 202 205 178 201 192 165 146 188
310 311 313 314 313 312 316 320 322 324 321 327 314 313 334 304 314 303 344 313 313 306 306 304 305 306 308 304 304 303 289 287 320 331 316 310 317 351 305 316 326 319 314 311 308 316 336 337 337 352 327 332 330 327 331 316 342 342 323 315 8 330 260 275 258 252 243 244 241 231 288 272 311 217 214 205 196 199 208 212 205 197 181 227 173 160 164
307 309 309 309 308 308 310 316 317 316 321 309 300 314 325 336 334 315 332 308 297 296 301 310 308 297 299 285 299 300 281 309 319 321 315 311 313 315 299 309 324 315 309 307 299 307 323 333 315 320 321 308 331 319 299 316 324 330 324 332 9 323 284 281 292 270 258 249 246 262 263 278 269 291 219 209 200 199 200 212 209 201 193 202 205 161 198
306 307 306 305 305 307 310 311 313 312 317 315 305 304 298 307 304 305 300 303 289 303 304 297 303 295 300 322 301 264 304 302 323 305 328 26 305 312 302 321 313 310 307 301 292 317 323 302 293 292 273 285 305 316 290 312 308 319 334 336 346 317 300 281 256 268 266 251 260 245 217 247 256 285 225 198 198 199 192 205 207 201 192 185 214 166 190
304 303 304 307 309 310 308 309 308 307 265 284 295 272 300 299 302 303 309 291 286 295 300 302 299 291 313 281 300 299 303 308 299 299 319 303 258 267 305 306 308 313 308 304 314 329 306 283 277 281 298 282 281 270 282 288 295 305 313 326 327 337 339 318 285 267 259 260 250 223 210 247 268 262 263 199 227 217 200 201 207 210 197 186 207 164 197
304 305 308 310 312 313 312 309 303 298 296 289 278 276 292 282 301 317 315 287 284 275 296 294 294 304 307 303 305 303 299 298 286 292 303 286 288 298 273 262 260 274 291 309 305 298 293 291 288 283 267 269 263 268 274 279 283 291 301 305 310 333 339 305 323 270 255 255 274 247 199 221 234 233 254 242 226 226 201 197 200 202 208 197 200 157 178
307 309 310 310 311 310 309 305 299 290 276 279 263 260 250 260 262 246 282 275 279 291 281 280 293 308 304 306 298 296 304 309 313 304 290 295 303 304 313 312 302 286 293 292 292 293 296 285 269 251 258 256 259 256 256 271 280 276 276 281 306 315 313 309 305 290 251 245 239 237 222 219 235 217 233 228 256 283 274 228 190 196 195 201 185 185 155
308 309 310 311 311 310 307 306 301 292 274 281 260 255 251 207 227 252 271 278 277 284 290 286 289 295 297 293 295 304 305 283 274 281 283 293 297 305 310 273 272 288 309 301 304 304 300 304 298 290 266 261 258 249 244 254 267 270 272 288 306 308 316 329 312 284 238 213 221 238 222 227 204 224 249 223 239 262 275 272 259 196 191 173 173 126 117
309 310 311 312 312 312 310 307 304 292 279 272 271 256 262 207 227 224 233 255 269 270 276 289 285 294 305 308 313 315 306 300 310 291 285 288 303 306 307 278 292 311 292 300 296 315 314 308 305 297 261 238 242 252 241 232 236 253 263 275 276 285 309 292 307 274 242 242 238 226 197 212 214 230 206 191 229 234 249 252 258 78 116 144 174 132 144
310 312 312 313 311 310 310 306 300 293 285 276 261 255 244 235 231 223 205 230 262 282 272 264 285 300 307 316 314 308 298 306 314 323 327 352 333 319 281 294 296 291 308 307 296 276 292 311 293 285 259 225 221 241 224 232 215 223 241 252 263 284 277 313 316 281 270 264 243 217 211 207 202 277 248 206 251 292 238 242 256 241 232 105 126 193 193
311 312 312 311 312 311 310 307 302 291 283 279 269 257 250 222 214 215 207 214 256 279 252 232 244 292 314 312 302 313 323 314 347 294 292 270 299 273 245 262 314 328 334 323 307 304 289 289 281 281 281 261 256 257 220 209 224 207 215 216 233 253 259 270 281 292 282 255 262 221 212 206 212 219 209 147 222 245 329 238 229 158 233 208 223 213 170
313 312 312 311 311 311 310 308 306 298 288 279 272 267 263 213 212 208 207 215 216 240 293 317 314 304 299 295 293 287 260 287 314 317 316 322 324 304 351 354 319 357 43 302 318 296 269 238 270 292 301 314 297 255 278 228 213 207 189 198 207 220 243 237 248 260 262 265 249 238 199 161 302 220 190 169 184 219 129 210 167 38 151 342 217 204 126
314 313 313 313 313 312 311 310 309 303 292 285 278 275 264 173 204 205 215 221 235 262 261 264 265 276 272 294 298 304 305 301 304 311 290 302 288 316 345 345 354 34 15 319 15 292 291 290 304 308 298 283 275 269 255 326 285 225 186 175 184 197 218 233 240 244 251 266 265 245 160 94 30 15 73 186 190 191 181 203 56 324 15 359 319 61 68
313 313 313 313 313 313 312 311 308 306 304 295 291 283 253 209 195 195 216 217 222 247 236 281 293 285 284 288 283 293 304 304 299 298 306 300 338 340 330 54 17 350 338 318 318 301 308 314 324 264 278 253 219 285 329 280 315 331 326 168 181 186 194 216 241 240 246 231 267 249 257 52 355 64 31 17 204 195 158 27 299 335 14 8 27 55 53
314 314 314 314 314 314 313 310 307 305 304 298 296 288 279 198 195 197 197 221 225 251 260 265 267 270 272 273 286 290 295 283 306 305 313 314 323 311 320 299 26 253 320 344 329 355 317 323 332 323 306 333 323 295 299 273 272 319 337 327 202 177 184 202 200 244 255 223 222 234 239 9 337 98 48 22 37 113 313 358 350 40 24 15 17 48 35
314 314 315 316 315 314 311 309 308 304 303 303 298 292 285 203 204 201 207 211 227 253 266 249 248 264 271 277 272 275 282 292 301 298 310 295 316 315 301 343 328 303 22 332 331 349 344 306 343 2 343 289 341 306 292 326 320 340 314 322 313 34 210 185 205 223 233 212 215 222 42 315 24 42 75 28 39 66 33 355 10 47 26 18 17 30 20
315 316 317 317 315 312 311 311 310 306 308 305 304 288 280 215 196 206 208 212 223 231 255 302 309 291 282 276 275 271 272 278 282 288 288 297 292 291 292 277 292 299 359 352 290 284 238 294 314 314 332 316 313 299 337 313 311 20 338 335 261 55 5 2 310 186 240 260 271 3 310 346 15 45 27 63 15 32 47 23 12 35 26 10 24 17 8
317 318 318 316 315 314 314 314 313 311 311 307 306 275 278 291 228 201 188 213 231 266 276 279 281 285 279 272 267 265 267 268 274 264 263 275 284 272 282 292 294 5 296 304 317 303 318 316 312 321 307 298 310 309 298 276 276 24 323 313 295 306 307 333 299 288 319 288 246 254 287 315 19 36 10 355 9 12 18 28 17 19 6 359 8 7 0
319 318 317 317 318 316 315 315 315 313 311 303 285 278 280 264 212 165 191 215 232 252 260 251 261 272 267 275 262 240 236 242 244 262 267 260 264 279 274 24 332 338 346 25 320 314 317 302 314 315 303 313 324 295 312 309 305 350 304 293 290 295 291 262 257 278 312 284 52 244 283 324 358 31 350 342 347 357 16 14 11 358 348 350 353 1 346
318 319 319 320 318 318 316 316 316 316 311 307 295 272 261 264 188 170 189 209 214 228 261 307 253 245 255 289 289 262 252 258 246 236 248 245 250 273 289 257 261 331 315 327 302 303 312 297 301 296 305 300 259 297 304 301 325 344 299 285 301 279 7 311 282 286 268 278 300 313 320 318 317 332 337 316 323 328 19 358 349 342 335 337 347 342 342
320 321 320 318 318 317 318 317 317 317 316 309 305 287 270 263 181 187 204 251 295 274 272 275 288 321 314 276 260 279 283 249 244 231 233 248 259 264 269 294 296 278 290 297 303 289 300 293 288 290 277 305 350 311 303 321 300 286 273 280 277 296 311 280 318 282 278 274 275 278 289 292 293 293 280 292 294 309 359 358 344 333 335 337 336 340 331
320 320 318 318 319 319 319 322 322 318 314 301 278 258 238 235 165 183 190 197 225 222 226 256 278 291 318 306 301 283 263 256 249 251 241 228 240 246 264 274 285 298 299 296 288 294 291 286 290 289 297 296 295 283 292 285 287 287 276 272 255 245 242 259 270 270 258 252 260 256 259 266 265 263 274 342 350 350 341 334 334 333 330 333 328 328 329
320 319 319 319 320 322 323 325 324 315 298 274 249 240 244 230 186 206 217 214 206 281 318 310 303 315 312 283 278 258 239 240 242 240 247 256 250 258 263 268 286 293 289 295 300 297 299 301 301 312 303 321 327 306 311 300 290 276 274 274 276 268 270 269 257 254 254 254 256 273 289 284 282 296 310 319 330 338 329 324 323 319 321 326 323 321 328
319 320 320 320 322 324 325 324 322 314 298 271 230 186 201 229 199 199 214 219 258 265 276 284 291 279 285 352 325 286 219 223 214 241 255 245 252 252 257 260 267 281 288 289 292 292 294 293 298 301 315 333 307 299 311 301 291 279 281 289 280 280 279 268 270 275 276 283 293 315 312 300 307 304 314 316 318 309 312 312 311 314 319 319 317 317 317
320 321 321 321 321 324 326 323 316 301 278 241 222 235 203 150 353 218 152 211 214 243 268 297 309 331 345 314 309 307 267 228 238 243 235 243 250 252 253 259 260 261 275 289 291 292 305 307 304 307 314 342 316 311 294 296 289 285 288 288 292 294 289 275 265 264 269 281 288 290 287 283 280 278 281 287 296 296 296 302 305 310 313 315 314 313 310
320 321 320 319 321 323 326 318 301 293 254 247 239 275 346 58 97 125 132 200 175 234 294 286 278 311 288 256 261 353 341 327 292 257 265 256 249 247 249 254 254 258 262 261 271 275 299 281 304 303 319 334 337 301 298 298 287 287 278 287 298 296 295 300 312 300 282 270 276 282 278 271 273 278 273 275 280 279 274 276 284 289 293 295 295 300 302
318 317 317 317 316 322 319 315 304 284 262 351 15 10 13 16 32 64 95 139 129 214 259 289 292 273 319 355 12 27 23 359 327 297 2 9 309 299 269 245 254 233 254 275 305 303 271 279 278 294 302 334 334 287 290 281 277 273 288 299 301 297 295 293 289 285 288 290 282 270 267 269 272 270 272 270 270 269 263 261 270 279 286 291 295 293 291
318 314 312 315 315 308 303 288 275 288 23 96 92 103 69 45 3 338 117 125 173 291 282 282 292 308 280 345 340 24 355 338 57 10 295 220 199 20 289 280 265 276 106 273 196 262 303 269 307 288 296 17 321 303 289 271 264 279 290 293 293 294 293 288 282 276 270 264 262 263 261 257 257 256 257 264 263 261 265 264 261 271 277 276 278 279 277
315 313 312 314 324 327 304 286 306 335 173 164 140 69 96 144 112 37 90 167 28 0 331 322 321 325 315 293 249 46 353 333 71 90 6 110 300 134 155 64 76 24 168 178 186 219 276 309 271 276 313 266 208 248 258 258 261 272 279 282 282 282 281 281 275 270 265 262 254 249 252 258 261 262 266 267 268 265 269 274 268 265 265 270 270 267 267
318 306 314 333 321 339 2 296 242 238 300 71 111 110 104 44 4 178 305 0 290 94 8 355 309 322 346 7 44 59 350 333 359 11 355 29 16 208 108 174 81 147 329 349 250 218 255 248 311 295 254 227 229 243 253 273 281 279 275 272 269 268 269 267 265 259 256 253 252 250 248 249 249 248 246 248 252 252 253 255 259 259 262 264 265 268 267
311 306 306 330 335 216 220 219 256 251 238 35 71 108 115 128 118 125 40 54 7 10 11 335 341 332 328 353 353 3 328 339 49 315 315 203 145 123 116 141 266 216 144 135 241 254 256 277 190 249 3 254 244 231 268 283 285 280 274 265 262 253 249 252 258 260 256 251 248 246 247 247 247 246 244 245 246 247 246 251 256 259 260 260 260 262 263
307 293 119 162 229 254 245 182 100 27 29 81 112 116 138 128 76 44 262 222 138 0 356 340 356 9 356 317 261 355 338 13 2 319 96 21 19 140 175 122 44 128 171 250 270 273 246 164 222 268 272 251 261 271 271 286 313 314 314 305 282 256 241 241 243 247 252 253 249 245 239 241 242 240 240 243 245 243 245 246 251 252 250 253 256 256 257
187 161 178 205 221 235 88 84 80 112 100 111 136 140 158 224 213 166 194 204 114 199 121 210 322 300 267 298 13 16 306 8 322 354 68 9 156 77 173 127 56 331 339 299 255 166 252 193 249 250 265 245 258 263 322 350 341 338 345 347 347 357 354 287 228 222 231 236 243 239 239 239 242 241 237 238 236 238 240 245 248 247 247 247 248 251 248
157 173 223 243 265 30 7 59 125 147 147 153 218 282 211 191 233 214 136 105 183 189 135 245 351 38 296 309 334 98 13 324 357 23 24 24 3 81 4 16 55 330 351 345 48 161 337 331 304 298 293 311 326 336 323 359 5 360 1 2 1 4 13 14 5 246 219 217 219 223 225 227 227 233 235 235 233 233 234 235 239 241 242 243 244 250 204
184 202 251 193 27 59 90 125 149 171 189 223 205 237 296 176 261 31 179 303 70 109 169 230 354 326 306 344 342 32 145 326 18 10 5 34 119 356 220 70 2 7 20 30 1 316 5 344 319 308 2 359 1 351 350 344 8 14 8 4 5 10 17 24 22 18 15 297 267 246 230 227 230 234 230 228 230 231 229 231 235 235 233 238 233 204 179
284 319 339 12 29 31 130 155 181 220 250 248 199 219 290 356 9 18 328 18 29 33 354 323 176 254 184 235 267 322 127 203 106 267 295 348 142 228 21 49 261 31 11 27 351 4 350 356 357 11 8 353 357 355 0 6 6 6 12 8 12 16 18 22 26 24 24 28 26 24 8 305 247 229 232 238 234 229 229 228 225 225 230 220 173 149 117
341 297 324 297 289 286 140 180 219 242 268 322 304 325 334 18 356 68 37 17 16 350 352 350 338 335 339 346 339 351 42 156 266 245 318 28 114 334 51 113 87 35 38 340 322 351 356 19 2 9 357 359 358 359 0 3 10 16 19 16 17 19 19 21 23 24 24 25 21 23 29 42 39 12 259 236 232 230 223 222 219 220 203 157 141 118 118
265 234 256 283 233 216 219 267 312 322 350 315 7 316 355 20 1 353 55 109 92 314 334 188 249 272 262 238 282 277 319 147 283 198 221 4 121 277 53 44 37 41 6 322 16 357 29 23 12 3 353 358 0 360 2 4 2 12 20 17 23 27 27 24 24 25 27 25 23 23 26 36 32 29 40 36 329 287 274 287 235 164 147 151 130 129 116
222 225 239 249 273 1 289 343 283 8 11 5 355 6 359 6 16 15 12 25 11 299 229 294 341 314 1 212 293 183 188 235 174 237 257 279 13 38 43 40 41 131 200 51 33 36 29 28 348 338 356 4 9 5 2 3 4 5 18 22 15 20 29 32 30 27 22 21 22 25 31 35 34 33 38 35 32 24 52 66 39 132 120 103 125 111 107
284 304 312 314 310 289 41 345 288 44 358 20 357 12 6 13 6 14 23 102 161 287 300 322 344 347 360 100 204 212 305 23 166 313 27 5 50 40 33 33 31 43 33 25 20 15 17 20 5 6 4 10 11 13 13 11 3 7 9 19 24 21 24 33 38 36 32 23 19 23 30 36 35 34 41 38 45 40 38 32 33 42 110 112 97 88 85
8 323 327 343 306 305 25 66 353 15 31 358 10 8 5 11 6 7 18 119 209 280 328 342 330 359 350 341 349 7 339 1 35 30 34 36 32 39 36 80 9 27 34 33 29 29 24 16 16 10 5 9 15 21 19 19 16 14 14 20 24 26 27 30 35 40 39 32 24 22 28 35 32 30 39 33 42 44 42 37 46 43 45 64 73 83 79
310 310 317 318 341 28 23 25 19 24 5 18 21 4 15 9 11 12 360 344 343 346 338 353 310 32 340 321 330 33 20 332 30 31 349 47 35 69 30 28 27 10 8 6 7 2 22 20 17 11 12 11 12 17 20 25 27 24 22 20 26 29 27 30 32 34 36 39 35 30 26 30 27 30 39 39 38 41 38 39 48 45 47 47 50 63 64
333 265 289 17 16 3 22 30 347 6 20 18 15 2 7 7 358 8 6 349 343 341 348 329 334 356 225 279 309 23 6 7 13 46 7 33 51 37 30 41 30 13 20 345 354 331 19 4 1 10 19 17 16 15 15 18 24 28 28 26 26 27 28 28 31 33 35 38 39 39 34 27 25 31 37 35 39 41 37 37 45 44 39 39 45 52 58
16 359 337 38 14 10 13 15 355 29 21 14 6 15 2 7 9 355 357 337 350 356 339 337 4 330 15 352 349 22 24 2 11 31 2 44 37 35 31 26 347 354 334 310 5 34 14 335 334 11 27 27 22 23 24 22 19 24 28 29 28 31 34 34 31 32 34 38 42 42 39 35 30 32 34 35 37 37 38 39 41 43 41 38 39 47 49
359 85 18 354 13 21 351 20 5 18 16 18 8 16 351 8 7 9 353 338 346 355 346 11 13 2 18 354 8 23 34 14 24 16 25 38 33 31 33 45 24 312 303 317 349 31 7 27 14 1 21 28 27 24 20 20 18 18 22 27 28 31 34 37 38 36 34 37 43 48 46 42 41 38 36 38 40 41 42 43 45 43 39 39 40 42 44
327 0 59 33 9 26 355 17 4 2 8 17 10 9 355 10 1 6 348 331 353 357 18 13 12 13 5 24 359 7 28 357 35 36 25 30 13 24 31 9 2 345 4 339 5 18 13 28 24 16 17 21 25 26 25 19 19 17 17 22 25 29 33 35 40 41 42 38 34 39 45 48 45 44 44 45 45 44 43 42 44 46 43 41 39 43 47
348 35 33 44 28 24 22 14 11 2 11 11 11 5 355 14 4 2 342 353 6 12 11 5 14 11 15 13 9 351 336 26 38 28 36 39 7 9 9 14 10 4 350 333 348 9 21 23 28 21 15 20 18 21 24 22 21 18 16 20 22 22 25 33 39 44 45 48 45 39 34 37 45 46 40 41 42 47 49 48 38 39 43 44 44 46 51